CW1828 Weather Reports


time (UTC)temp
F
wind
direction
speed
knots
gust
knots
rain 1hr
in
rain 24hr
in
rain mn
in
humidity
%
barometer
mb
20260507112307 65 225 5.2 6.1 0.00 0.00 0.00 28 1011.2
20260507111803 65 228 4.3 5.2 0.00 0.00 0.00 28 1011.2
20260507111304 65 202 2.6 6.1 0.00 0.00 0.00 28 1011.3
20260507110804 65 213 4.3 5.2 0.00 0.00 0.00 28 1011.3
20260507105804 65 218 5.2 7.0 0.00 0.00 0.00 28 1011.5
20260507105306 65 217 4.3 6.1 0.00 0.00 0.00 28 1011.4
20260507104804 64 209 4.3 5.2 0.00 0.00 0.00 29 1011.4
20260507104304 64 222 4.3 5.2 0.00 0.00 0.00 29 1011.4
20260507103804 64 218 2.6 4.3 0.00 0.00 0.00 29 1011.4
20260507103304 64 217 2.6 4.3 0.00 0.00 0.00 29 1011.5
20260507102804 64 217 3.5 5.2 0.00 0.00 0.00 29 1011.5
20260507101804 64 211 4.3 6.1 0.00 0.00 0.00 29 1011.5
20260507101304 64 218 0.9 4.3 0.00 0.00 0.00 29 1011.5
20260507100804 64 212 3.5 5.2 0.00 0.00 0.00 29 1011.5
20260507095804 64 217 2.6 6.1 0.00 0.00 0.00 29 1011.5
20260507095305 63 220 4.3 5.2 0.00 0.00 0.00 30 1011.4
20260507094303 63 172 4.3 6.1 0.00 0.00 0.00 29 1011.5
20260507093803 64 170 4.3 5.2 0.00 0.00 0.00 29 1011.4
20260507093304 64 201 1.7 2.6 0.00 0.00 0.00 29 1011.5
20260507092803 64 238 0.0 0.9 0.00 0.00 0.00 29 1011.5
20260507092306 64 238 0.0 0.9 0.00 0.00 0.00 29 1011.5
20260507091803 64 238 1.7 2.6 0.00 0.00 0.00 29 1011.5
20260507091303 64 238 2.6 2.6 0.00 0.00 0.00 29 1011.5
20260507090804 64 238 2.6 2.6 0.00 0.00 0.00 29 1011.5
20260507090304 64 233 1.7 2.6 0.00 0.00 0.00 29 1011.6
20260507085804 64 233 2.6 2.6 0.00 0.00 0.00 29 1011.6
20260507085306 64 234 2.6 2.6 0.00 0.00 0.00 29 1011.7
20260507084804 64 174 2.6 2.6 0.00 0.00 0.00 29 1011.7
20260507084304 64 168 1.7 2.6 0.00 0.00 0.00 29 1011.8
20260507083804 64 168 1.7 2.6 0.00 0.00 0.00 29 1011.8
20260507083304 65 176 1.7 2.6 0.00 0.00 0.00 29 1011.8
20260507082804 65 174 1.7 5.2 0.00 0.00 0.00 29 1011.8
20260507082306 65 175 3.5 6.1 0.00 0.00 0.00 30 1011.7
20260507081805 65 103 2.6 7.0 0.00 0.00 0.00 30 1011.8
20260507081304 65 228 2.6 4.3 0.00 0.00 0.00 29 1011.7
20260507080803 65 139 2.6 6.1 0.00 0.00 0.00 29 1011.9
20260507080304 66 256 2.6 2.6 0.00 0.00 0.00 28 1011.9
20260507075805 66 165 0.9 2.6 0.00 0.00 0.00 28 1011.9
20260507075306 66 274 1.7 2.6 0.00 0.00 0.00 28 1011.9
20260507074804 67 274 1.7 2.6 0.00 0.00 0.00 27 1012.0
20260507074303 67 113 1.7 2.6 0.00 0.00 0.00 28 1011.9
20260507073804 68 253 2.6 2.6 0.00 0.00 0.00 27 1011.9
20260507073304 68 197 3.5 5.2 0.00 0.00 0.00 27 1011.8
20260507072804 68 141 2.6 2.6 0.00 0.00 0.00 28 1011.9
20260507071304 69 232 2.6 4.3 0.00 0.00 0.00 27 1011.9
20260507070804 69 218 3.5 5.2 0.00 0.00 0.00 27 1011.9
20260507065306 69 225 4.3 8.7 0.00 0.00 0.00 28 1011.9
20260507064804 69 221 6.1 7.8 0.00 0.00 0.00 29 1012.0
20260507064304 69 223 6.1 10.4 0.00 0.00 0.00 29 1011.9
20260507063804 69 225 6.1 10.4 0.00 0.00 0.00 29 1011.9
20260507063304 69 223 6.1 8.7 0.00 0.00 0.00 29 1012.0
20260507061803 70 222 6.1 8.7 0.00 0.00 0.00 28 1012.0
20260507061304 70 228 6.1 10.4 0.00 0.00 0.00 28 1012.0
20260507060804 70 234 6.1 8.7 0.00 0.00 0.00 28 1012.0
20260507055804 71 240 6.1 10.4 0.00 0.00 0.00 27 1012.0
20260507054304 70 252 4.3 7.0 0.00 0.00 0.00 26 1012.1
20260507053804 70 237 5.2 8.7 0.00 0.00 0.00 26 1012.1
20260507053304 70 244 5.2 7.8 0.00 0.00 0.00 27 1012.1
20260507052804 70 239 6.1 8.7 0.00 0.00 0.00 27 1012.1
20260507051803 70 227 7.0 10.4 0.00 0.00 0.00 27 1012.1
20260507051304 71 230 6.1 8.7 0.00 0.00 0.00 27 1012.2
20260507045803 70 242 6.1 10.4 0.00 0.00 0.00 28 1012.1
20260507045306 70 237 7.0 10.4 0.00 0.00 0.00 28 1012.1
20260507044804 70 239 6.1 10.4 0.00 0.00 0.00 28 1012.1
20260507043304 70 237 7.0 8.7 0.00 0.00 0.00 29 1012.0
20260507042804 70 229 6.1 10.4 0.00 0.00 0.00 30 1012.0
20260507042306 70 228 7.0 10.4 0.00 0.00 0.00 30 1012.0
20260507041804 70 224 7.8 10.4 0.00 0.00 0.00 30 1012.0
20260507041304 69 225 6.1 10.4 0.00 0.00 0.00 30 1011.9
20260507040804 69 230 6.1 7.8 0.00 0.00 0.00 31 1011.9
20260507040304 69 227 6.1 10.4 0.00 0.00 0.00 31 1011.9
20260507035804 69 218 7.0 8.7 0.00 0.00 0.00 31 1011.8
20260507035306 69 221 6.1 10.4 0.00 0.00 0.00 32 1011.8
20260507034804 70 221 7.8 10.4 0.00 0.00 0.00 32 1011.8
20260507034304 70 218 6.1 10.4 0.00 0.00 0.00 32 1011.7
20260507033804 70 217 6.1 7.8 0.00 0.00 0.00 31 1011.7
20260507033304 70 217 6.1 8.7 0.00 0.00 0.00 31 1011.5
20260507032804 70 227 5.2 7.8 0.00 0.00 0.00 32 1011.5
20260507032306 70 219 6.1 10.4 0.00 0.00 0.00 32 1011.5
20260507031303 70 216 6.1 8.7 0.00 0.00 0.00 32 1011.4
20260507030804 70 214 7.8 10.4 0.00 0.00 0.00 32 1011.3
20260507030304 71 208 7.8 10.4 0.00 0.00 0.00 32 1011.2
20260507025803 71 231 5.2 11.3 0.00 0.00 0.00 32 1011.2
20260507024804 71 217 7.0 10.4 0.00 0.00 0.00 30 1011.2
20260507024304 72 206 7.8 11.3 0.00 0.00 0.00 29 1011.1
20260507023803 72 243 5.2 8.7 0.00 0.00 0.00 29 1011.0
20260507023304 73 218 5.2 7.8 0.00 0.00 0.00 29 1011.0
20260507022804 73 211 5.2 10.4 0.00 0.00 0.00 28 1011.0
20260507022306 74 195 7.0 8.7 0.00 0.00 0.00 27 1011.1
20260507021803 74 197 2.6 4.3 0.00 0.00 0.00 24 1011.1
20260507021304 75 326 2.6 6.1 0.00 0.00 0.00 22 1011.1
20260507020804 75 327 3.5 5.2 0.00 0.00 0.00 21 1011.1
20260507020304 75 324 2.6 5.2 0.00 0.00 0.00 21 1011.1
20260507015306 76 354 4.3 6.1 0.00 0.00 0.00 20 1011.0
20260507014804 76 345 6.1 10.4 0.00 0.00 0.00 20 1011.0
20260507013804 77 335 4.3 7.0 0.00 0.00 0.00 19 1011.0
20260507013304 77 326 6.1 7.8 0.00 0.00 0.00 19 1011.0
20260507012804 77 348 7.0 10.4 0.00 0.00 0.00 18 1011.1
20260507012306 77 351 6.1 10.4 0.00 0.00 0.00 19 1011.0
20260507011803 78 340 5.2 7.8 0.00 0.00 0.00 17 1011.1
20260507011304 78 320 7.0 11.3 0.00 0.00 0.00 18 1011.0
20260507010804 78 0 5.2 10.4 0.00 0.00 0.00 19 1010.9
20260507010304 78 8 4.3 7.8 0.00 0.00 0.00 20 1010.9
20260507005804 78 127 0.9 4.3 0.00 0.00 0.00 20 1010.8
20260507005305 78 90 1.7 4.3 0.00 0.00 0.00 20 1010.8
20260507004304 78 335 4.3 7.8 0.00 0.00 0.00 20 1011.0
20260507003804 78 350 7.0 11.3 0.00 0.00 0.00 20 1011.0
20260507003304 78 320 6.1 8.7 0.00 0.00 0.00 20 1010.9
20260507002803 78 342 6.1 11.3 0.00 0.00 0.00 20 1010.9
20260507002306 79 39 1.7 4.3 0.00 0.00 0.00 20 1011.0
20260507001803 79 14 3.5 7.0 0.00 0.00 0.00 20 1011.0
20260507001304 79 353 2.6 6.1 0.00 0.00 0.00 20 1011.0
20260507000804 79 27 3.5 7.0 0.00 0.00 0.00 20 1011.0
20260507000306 78 22 5.2 10.4 0.00 0.00 0.00 21 1010.9
20260506235803 78 321 0.9 7.8 0.00 0.00 0.00 20 1010.9
20260506235306 78 349 6.1 10.4 0.00 0.00 0.00 20 1011.0
20260506234804 78 331 2.6 8.7 0.00 0.00 0.00 21 1010.9
20260506234304 78 94 2.6 6.1 0.00 0.00 0.00 21 1010.8
20260506233303 78 11 4.3 10.4 0.00 0.00 0.00 21 1011.0
20260506232804 78 357 7.8 12.2 0.00 0.00 0.00 21 1011.0
20260506231804 78 24 3.5 6.1 0.00 0.00 0.00 21 1011.0
20260506231304 78 313 2.6 7.0 0.00 0.00 0.00 22 1011.1
20260506230803 78 22 4.3 7.0 0.00 0.00 0.00 22 1011.1
20260506230304 78 309 1.7 7.0 0.00 0.00 0.00 22 1011.1
20260506225804 77 346 6.1 12.2 0.00 0.00 0.00 22 1011.3
20260506225306 77 307 1.7 6.1 0.00 0.00 0.00 22 1011.3
20260506223803 77 24 4.3 8.7 0.00 0.00 0.00 22 1011.4
20260506223304 77 340 6.1 14.8 0.00 0.00 0.00 22 1011.5
20260506222306 77 334 7.0 13.0 0.00 0.00 0.00 22 1011.5
20260506221804 77 7 8.7 13.0 0.00 0.00 0.00 22 1011.7
20260506221304 77 347 6.1 12.2 0.00 0.00 0.00 23 1011.7
20260506220804 77 346 6.1 13.0 0.00 0.00 0.00 23 1011.7
20260506220304 77 1 6.1 12.2 0.00 0.00 0.00 23 1011.9
20260506215804 77 13 5.2 11.3 0.00 0.00 0.00 23 1012.0
20260506215306 77 344 7.8 12.2 0.00 0.00 0.00 23 1012.1
20260506214803 77 328 4.3 10.4 0.00 0.00 0.00 23 1012.0
20260506214304 77 345 6.1 12.2 0.00 0.00 0.00 23 1012.2
20260506213803 76 318 7.8 13.9 0.00 0.00 0.00 23 1012.2
20260506213303 76 350 8.7 11.3 0.00 0.00 0.00 24 1012.3
20260506212804 76 344 8.7 12.2 0.00 0.00 0.00 24 1012.4
20260506212306 76 329 8.7 13.9 0.00 0.00 0.00 24 1012.4
20260506211804 76 357 5.2 7.8 0.00 0.00 0.00 24 1012.5
20260506211303 76 233 3.5 10.4 0.00 0.00 0.00 24 1012.5
20260506210804 76 340 7.8 13.0 0.00 0.00 0.00 24 1012.5
20260506210303 76 330 7.8 13.9 0.00 0.00 0.00 24 1012.6
20260506205804 77 2 5.2 13.9 0.00 0.00 0.00 23 1012.6
20260506205306 78 349 3.5 11.3 0.00 0.00 0.00 23 1012.7
20260506204804 77 153 0.9 5.2 0.00 0.00 0.00 24 1012.6
20260506204303 77 185 4.3 7.0 0.00 0.00 0.00 24 1012.8
20260506203803 76 103 2.6 7.8 0.00 0.00 0.00 24 1012.9
20260506203304 76 5 6.1 11.3 0.00 0.00 0.00 24 1013.0
20260506202306 75 156 1.7 7.8 0.00 0.00 0.00 25 1013.0
20260506201804 75 16 5.2 7.8 0.00 0.00 0.00 25 1013.2
20260506200803 75 46 2.6 10.4 0.00 0.00 0.00 25 1013.2
20260506200304 75 19 4.3 7.8 0.00 0.00 0.00 25 1013.3
20260506195803 75 34 2.6 4.3 0.00 0.00 0.00 25 1013.3
20260506195306 74 70 4.3 7.8 0.00 0.00 0.00 25 1013.5
20260506194803 74 75 1.7 6.1 0.00 0.00 0.00 26 1013.5
20260506194303 73 0 3.5 7.0 0.00 0.00 0.00 26 1013.6
20260506193804 73 21 3.5 8.7 0.00 0.00 0.00 26 1013.6
20260506192804 73 4 5.2 10.4 0.00 0.00 0.00 26 1013.6
20260506192305 73 28 3.5 7.0 0.00 0.00 0.00 26 1013.6
20260506191804 73 24 4.3 8.7 0.00 0.00 0.00 26 1013.7
20260506191304 73 27 2.6 10.4 0.00 0.00 0.00 26 1013.7
20260506190304 73 4 4.3 5.2 0.00 0.00 0.00 26 1013.8
20260506185803 73 11 4.3 7.8 0.00 0.00 0.00 26 1013.9
20260506185306 73 13 2.6 11.3 0.00 0.00 0.00 26 1013.9
20260506184804 73 19 6.1 10.4 0.00 0.00 0.00 26 1014.0
20260506183803 72 7 2.6 10.4 0.00 0.00 0.00 27 1014.1
20260506183303 72 20 3.5 7.0 0.00 0.00 0.00 27 1014.2
20260506182803 72 25 4.3 8.7 0.00 0.00 0.00 28 1014.2
20260506182306 72 103 1.7 4.3 0.00 0.00 0.00 28 1014.2
20260506181804 71 58 2.6 6.1 0.00 0.00 0.00 29 1014.3
20260506181303 71 73 4.3 7.0 0.00 0.00 0.00 29 1014.3
20260506180804 70 122 1.7 7.0 0.00 0.00 0.00 30 1014.3
20260506180304 70 87 4.3 7.0 0.00 0.00 0.00 30 1014.2
20260506175804 69 53 0.9 4.3 0.00 0.00 0.00 30 1014.3
20260506175306 69 348 3.5 8.7 0.00 0.00 0.00 31 1014.3
20260506174804 69 16 1.7 5.2 0.00 0.00 0.00 30 1014.2
20260506174303 69 334 5.2 8.7 0.00 0.00 0.00 30 1014.2
20260506173804 69 337 5.2 8.7 0.00 0.00 0.00 30 1014.2
20260506173304 68 322 3.5 8.7 0.00 0.00 0.00 30 1014.2
20260506172803 68 75 1.7 2.6 0.00 0.00 0.00 30 1014.2
20260506171804 69 38 2.6 7.0 0.00 0.00 0.00 30 1014.1
20260506171304 68 38 1.7 4.3 0.00 0.00 0.00 30 1014.1
20260506170804 68 27 0.9 4.3 0.00 0.00 0.00 31 1014.1
20260506170304 67 64 2.6 6.1 0.00 0.00 0.00 31 1014.0
20260506165804 67 1 2.6 5.2 0.00 0.00 0.00 31 1014.0
20260506164804 67 20 1.7 4.3 0.00 0.00 0.00 31 1014.0
20260506164304 67 352 4.3 7.0 0.00 0.00 0.00 31 1014.0
20260506163804 67 353 2.6 6.1 0.00 0.00 0.00 31 1014.0
20260506163304 67 70 1.7 5.2 0.00 0.00 0.00 31 1014.0
20260506162804 66 7 2.6 7.8 0.00 0.00 0.00 31 1013.9
20260506162306 67 23 2.6 7.0 0.00 0.00 0.00 31 1013.9
20260506161803 67 304 1.7 7.0 0.00 0.00 0.00 30 1013.8
20260506161304 66 330 1.7 2.6 0.00 0.00 0.00 31 1013.8
20260506160804 66 22 1.7 4.3 0.00 0.00 0.00 31 1013.8
20260506160303 65 42 0.9 2.6 0.00 0.00 0.00 32 1013.8
20260506155803 65 47 1.7 2.6 0.00 0.00 0.00 32 1013.7
20260506155306 64 22 1.7 4.3 0.00 0.00 0.00 32 1013.7
20260506154804 64 24 1.7 2.6 0.00 0.00 0.00 34 1013.7
20260506154304 64 345 2.6 5.2 0.00 0.00 0.00 33 1013.7
20260506153804 63 17 1.7 2.6 0.00 0.00 0.00 34 1013.7
20260506153303 63 8 1.7 4.3 0.00 0.00 0.00 34 1013.6
20260506152804 63 0 2.6 4.3 0.00 0.00 0.00 35 1013.6
20260506152306 63 72 1.7 2.6 0.00 0.00 0.00 35 1013.6
20260506151804 63 347 1.7 5.2 0.00 0.00 0.00 36 1013.6
20260506151303 62 38 1.7 2.6 0.00 0.00 0.00 36 1013.6
20260506150804 61 12 0.9 2.6 0.00 0.00 0.00 38 1013.6
20260506150305 61 95 2.6 5.2 0.00 0.00 0.00 37 1013.6
20260506145804 60 97 1.7 4.3 0.00 0.00 0.00 40 1013.7
20260506145305 59 1 1.7 2.6 0.00 0.00 0.00 41 1013.6
20260506144804 58 1 0.9 2.6 0.00 0.00 0.00 42 1013.7
20260506144304 58 1 0.9 2.6 0.00 0.00 0.00 43 1013.7
20260506143304 57 41 1.7 2.6 0.00 0.00 0.00 44 1013.6
20260506142803 56 41 0.0 0.9 0.00 0.00 0.00 45 1013.6
20260506142306 56 41 0.9 2.6 0.00 0.00 0.00 47 1013.6
20260506141804 55 278 0.0 1.7 0.00 0.00 0.00 49 1013.5
20260506141304 54 278 0.0 0.0 0.00 0.00 0.00 50 1013.5
20260506140304 53 278 0.0 0.9 0.00 0.00 0.00 51 1013.3
20260506135804 53 278 0.9 1.7 0.00 0.00 0.00 51 1013.3
20260506135306 52 278 0.9 2.6 0.00 0.00 0.00 52 1013.2
20260506134804 52 278 0.9 1.7 0.00 0.00 0.00 52 1013.1
20260506133804 51 278 1.7 2.6 0.00 0.00 0.00 53 1012.9
20260506133303 51 278 1.7 2.6 0.00 0.00 0.00 54 1012.9
20260506132804 50 278 0.9 1.7 0.00 0.00 0.00 54 1012.8
20260506132307 50 278 1.7 2.6 0.00 0.00 0.00 54 1012.7
20260506131804 50 174 0.0 0.9 0.00 0.00 0.00 54 1012.7
20260506131304 50 174 0.9 1.7 0.00 0.00 0.00 54 1012.7
20260506130804 50 174 0.0 0.9 0.00 0.00 0.00 54 1012.7
20260506130303 50 174 0.9 1.7 0.00 0.00 0.00 53 1012.6
20260506125803 50 174 1.7 2.6 0.00 0.00 0.00 53 1012.5
20260506125305 50 161 1.7 2.6 0.00 0.00 0.00 53 1012.5
20260506124804 50 161 2.6 2.6 0.00 0.00 0.00 53 1012.5
20260506124304 50 259 1.7 2.6 0.00 0.00 0.00 53 1012.4
20260506123804 50 259 1.7 2.6 0.00 0.00 0.00 53 1012.4
20260506123303 50 259 2.6 2.6 0.00 0.00 0.00 54 1012.3
20260506122803 50 259 1.7 2.6 0.00 0.00 0.00 54 1012.3
20260506122306 49 259 1.7 2.6 0.00 0.00 0.00 55 1012.2
20260506121303 49 232 2.6 2.6 0.00 0.00 0.00 54 1012.2
20260506120304 50 266 0.9 1.7 0.00 0.00 0.00 52 1012.2
20260506115803 50 266 0.9 1.7 0.00 0.00 0.00 53 1012.1
20260506115306 50 266 0.0 1.7 0.00 0.00 0.00 53 1012.1
20260506114803 50 266 1.7 2.6 0.00 0.00 0.00 53 1012.1
20260506114304 50 266 1.7 2.6 0.00 0.00 0.00 53 1012.1
20260506113804 50 157 0.0 0.9 0.00 0.00 0.00 53 1012.0
20260506113304 50 157 0.9 2.6 0.00 0.00 0.00 53 1011.9
20260506112804 50 157 2.6 4.3 0.00 0.00 0.00 53 1011.9